Regional Weather Roundup
Issued by NWS Jackson, KY

Home | Current Version | Previous Version | Graphics & Text | Print | Product List | Glossary On
Versions: 1 2 3 4 5 6 7 8 9 10 11 12 13 14 15 16 17 18 19 20 21 22 23 24 25 26 27 28 29 30 31 32 33 34 35 36 37 38 39 40 41 42 43 44 45 46 47 48 49 50
000
ASUS43 KJKL 222019
RWRJKL

EAST KENTUCKY HOURLY WEATHER ROUNDUP
NATIONAL WEATHER SERVICE JACKSON KY
300 PM EST MON DEC 22 2014

NOTE: "FAIR" INDICATES FEW OR NO CLOUDS BELOW 12,000 FEET WITH
NO SIGNIFICANT WEATHER AND/OR OBSTRUCTIONS TO VISIBILITY.

* THESE REPORTS ARE NOT UNDER NWS QUALITY CONTROL AND MAY NOT
  REPORT WEATHER SUCH AS PRECIPITATION AND FOG.

KYZ079-080-083-085-087-088-110-112-115-119-120-222100
...EASTERN KENTUCKY...

CITY           SKY/WX    TMP DP  RH WIND       PRES   REMARKS
JACKSON        CLOUDY    55  40  56 CALM      29.87F
LONDON         CLOUDY    58  42  55 SE7       29.83F
SOMERSET*      CLOUDY    57  41  54 SE6       29.83F
MONTICELLO*    PTSUNNY   57  46  66 S14G24    29.83F
MIDDLESBORO*   PTSUNNY   57  42  57 E3        29.85F
HARLAN APT*    CLOUDY    57  41  54 E6        29.84F
BLACK MTN*       N/A     46  41  81 CALM        N/A
PIKEVILLE APT* CLOUDY    54  41  62 NE6       29.88F
BIG SANDY*     CLOUDY    56  41  57 E5        29.88F
MOREHEAD APT*  PTCLDY    55  39  54 E6G15     29.87F
ASHLAND*       SUNNY     46  37  71 CALM      29.87F
$$

KYZ035-036-041-042-044-050-067-078-099-222100
...CENTRAL KENTUCKY...

CITY           SKY/WX    TMP DP  RH WIND       PRES   REMARKS
MT STERLING*   CLOUDY    54  41  62 E7        29.86F
FLEMING/MASON* PTSUNNY   52  39  62 E10       29.86F
DANVILLE*      CLOUDY    54  41  62 SE8       29.82F
RICHMOND*      CLOUDY    55  41  58 SE8       29.82F
LEXINGTON      CLOUDY    54  40  59 E10       29.82F
FRANKFORT      CLOUDY    52  40  63 E9        29.79F
$$

KYZ091>093-OHZ055-061-077-WVZ005-015-034-035-042-222100
...SOUTHERN OHIO/WEST VIRGINIA...

CITY           SKY/WX    TMP DP  RH WIND       PRES   REMARKS
COVINGTON      CLOUDY    51  36  56 E10       29.82F
COLUMBUS       PTSUNNY   46  34  62 E8        29.91F
DAYTON         CLOUDY    47  37  68 E9        29.85F
WILMINGTON     CLOUDY    46  36  68 SE7       29.88F
HUNTINGTON     SUNNY     57  39  51 SE9       29.88F
CHARLESTON     MOSUNNY   53  37  54 SE9       29.93F
PINEVILLE*     SUNNY     55  43  64 MISG      29.96F
BECKLEY        CLOUDY    41  34  76 SE7G22    29.94F
BLUEFIELD      CLOUDY    40  34  79 E8        29.95F WCI  34
$$

VAZ002-007-008-TNZ017-027-036-066-071-222100
...SOUTHWEST VIRGINIA/EAST TENNESSEE...

CITY           SKY/WX    TMP DP  RH WIND       PRES   REMARKS
WISE*          MOSUNNY   55  37  50 SE7       29.89F
JONESVILLE*    PTCLDY    59  41  51 E8        29.88F
ABINGDON*      MOSUNNY   57  42  57 SE13      29.90S
BRISTOL        MOSUNNY   59  42  53 E9        29.88F
KNOXVILLE      PTSUNNY   59  42  53 CALM      29.84F
OAK RIDGE      CLOUDY    57  41  55 CALM      29.86F
CROSSVILLE     LGT RAIN  50  44  80 S9        29.84F
NASHVILLE      CLOUDY    52  49  89 S7        29.78F
$$

...KEY TO REMARKS...
VSB - VISIBILITY IN MILES
WCI - WIND CHILL INDEX
HX  - HEAT INDEX

$$


USA.gov is the U.S. government's official web portal to all federal, state and local government web resources and services.